Wind_Speed
14 14 15 14 14 14 14 15 15 14 14 13 12 12 12 10 9 9 8 8 9 9 10 11 12 13 14 14 15 16 18 19 21 22 23 25 27 29 31 32 34 35 36 36
15 15 16 16 15 15 16 16 16 16 15 14 13 13 13 12 11 11 11 11 11 12 12 13 14 15 16 17 18 19 20 21 23 24 25 26 29 31 32 33 35 36 37 37
16 16 18 18 17 18 19 18 19 19 17 16 16 14 13 13 13 13 13 12 13 14 15 16 17 18 18 19 20 21 22 23 24 26 27 29 31 32 34 35 36 37 37 38
17 17 19 16 17 19 19 20 21 20 20 19 17 16 16 15 14 14 14 14 15 16 17 18 19 20 20 21 22 23 24 25 26 27 28 30 32 34 36 36 36 37 38 39
17 17 17 16 17 19 20 21 21 21 21 20 20 19 17 16 16 16 16 17 18 18 19 20 21 22 22 23 24 25 26 27 28 29 30 32 34 35 36 37 38 39 40 40
19 20 19 17 18 20 21 23 23 22 21 22 23 22 20 19 19 19 19 20 20 21 22 22 23 24 25 25 26 27 28 29 30 31 32 34 35 36 37 39 40 41 41 41
20 20 20 20 19 20 22 23 23 23 23 24 25 23 22 22 21 20 21 22 22 23 23 24 25 26 26 27 28 29 30 31 32 33 35 36 37 38 39 40 41 41 41 42
23 22 22 23 22 20 21 22 22 23 24 23 23 23 22 22 24 23 22 23 24 24 25 26 26 27 28 29 31 31 32 33 34 36 37 38 39 39 41 41 41 42 42 42
24 23 23 22 22 22 20 21 22 22 22 22 22 20 20 22 22 22 23 24 25 26 28 28 28 30 30 31 32 33 34 35 37 38 38 39 40 41 42 43 43 42 43 43
26 26 24 23 22 22 22 21 19 19 19 19 20 20 21 22 23 24 25 26 27 27 29 30 31 31 32 34 35 35 36 37 39 40 41 42 43 43 43 44 44 44 44 44
27 25 25 24 24 24 22 21 20 19 18 20 20 22 23 23 25 26 27 28 28 29 31 32 32 34 35 36 36 37 38 39 40 42 43 43 43 44 44 45 45 45 45 45
27 26 26 25 24 23 22 21 20 20 20 21 22 23 25 26 27 28 29 30 31 32 32 33 34 35 37 38 39 40 40 40 42 43 44 45 45 46 46 46 46 47 47 46
28 27 27 26 25 24 23 23 23 23 23 24 24 25 26 27 28 29 30 31 32 34 34 35 36 37 39 40 41 42 43 43 44 45 47 47 47 47 48 48 48 48 47 46
27 27 27 26 26 26 25 25 26 26 26 26 27 27 28 29 30 32 32 33 35 36 37 38 39 40 41 43 44 45 46 47 48 49 49 49 49 50 50 50 49 47 47 46
26 27 27 27 27 27 27 27 27 28 28 28 29 30 31 32 33 34 35 36 37 38 39 40 41 43 44 45 47 48 49 49 50 50 50 51 52 52 52 51 50 48 47 45
26 27 27 26 26 27 27 27 28 29 30 31 32 32 33 34 35 36 37 38 39 40 42 43 44 45 46 47 48 49 51 51 52 52 53 53 53 53 52 51 49 48 46 44
26 26 27 27 27 27 27 28 29 30 32 33 34 35 36 36 37 38 39 40 41 43 44 45 47 48 49 49 50 51 52 53 53 54 54 54 53 53 52 50 48 47 45 43
26 25 25 25 27 27 28 30 31 33 34 35 36 37 38 39 40 41 42 43 44 45 46 48 49 50 51 51 52 53 53 54 54 54 53 53 52 52 51 49 47 45 43 41
24 24 25 27 28 29 31 32 34 36 37 39 40 40 41 42 43 44 45 45 46 47 48 49 50 51 51 52 53 53 53 54 53 53 53 52 51 50 49 48 45 43 41 39
27 27 28 29 31 33 34 36 37 39 40 41 43 44 45 45 46 47 47 48 49 49 50 50 51 51 52 53 53 53 54 54 54 53 52 52 50 49 47 45 43 41 39 36
30 31 32 34 35 36 38 39 40 41 43 44 45 46 46 47 48 49 49 49 50 51 51 51 52 52 53 53 53 54 54 54 54 53 52 50 48 46 44 42 40 38 35 33
34 36 37 38 39 39 40 42 43 43 44 45 46 47 48 48 49 50 50 51 51 51 51 51 52 53 53 53 53 53 52 52 51 49 48 46 44 42 40 37 35 33 31 29
38 40 41 42 42 42 43 44 44 45 45 46 47 48 48 49 49 49 49 50 50 50 50 51 50 50 50 50 49 49 47 46 45 44 42 40 38 36 33 31 29 27 26 24
42 42 43 44 44 44 45 46 46 47 47 48 48 49 49 49 49 49 48 48 48 47 47 47 46 45 45 44 44 43 43 42 41 40 37 35 32 30 28 27 25 23 21 20
43 44 45 45 46 47 47 47 48 48 48 48 48 48 47 47 46 45 44 44 43 43 43 42 41 41 41 40 40 40 39 38 37 36 33 30 28 26 23 21 20 18 17 16
44 45 45 46 47 47 47 47 47 46 45 45 44 43 43 42 42 41 41 40 40 39 39 38 38 38 37 37 37 37 36 34 33 31 29 26 24 21 19 17 16 15 14 14
44 45 45 45 45 45 45 44 44 43 43 42 41 40 40 39 39 39 38 37 37 37 36 35 35 35 35 36 35 34 32 30 28 26 24 21 18 16 14 13 12 12 11 12
Wind_Direction
274 272 264 257 253 251 254 258 261 269 277 279 281 286 290 294 302 310 315 317 313 310 307 303 299 296 295 296 298 301 304 306 308 310 311 313 316 318 319 320 321 323 324 324
268 262 259 255 253 252 253 259 262 266 273 280 278 283 287 292 300 304 308 310 306 301 297 293 291 291 291 292 294 297 301 304 307 308 310 313 315 317 318 318 320 322 323 323
263 259 256 252 251 250 254 260 265 268 274 274 274 277 280 284 293 299 302 300 295 289 286 286 285 286 288 290 292 295 299 303 305 306 308 311 314 315 316 318 319 320 321 322
265 262 256 251 251 255 259 264 264 268 272 274 272 275 276 277 285 292 290 288 287 284 282 283 283 284 285 288 291 294 298 300 303 305 307 310 312 314 316 317 319 320 321 322
266 262 259 252 251 255 261 265 268 271 271 272 272 272 273 273 275 282 288 287 285 284 284 283 284 285 286 288 291 294 296 298 301 304 306 308 311 314 315 317 318 319 320 321
267 264 260 256 255 255 260 263 268 270 270 273 274 270 269 271 274 278 285 287 286 285 286 284 284 285 286 288 291 294 295 297 299 303 305 308 310 312 314 316 318 318 319 319
263 266 263 263 264 263 264 269 273 272 272 272 275 269 272 274 273 275 280 285 288 288 286 286 286 287 288 290 292 294 296 297 300 302 305 307 309 311 313 315 316 317 318 319
269 269 271 274 272 276 275 275 279 279 275 275 274 271 273 276 278 277 282 285 288 288 286 288 288 288 290 291 292 294 297 299 300 302 305 306 308 310 311 312 314 315 316 317
274 273 275 280 282 285 281 281 282 282 279 277 275 275 276 280 281 279 283 285 285 286 287 287 289 290 291 292 293 295 297 298 300 302 304 305 307 308 309 310 312 313 314 315
277 279 282 284 285 288 287 284 284 285 284 287 287 286 287 285 283 283 286 286 285 287 288 288 289 290 290 291 292 295 296 298 300 302 303 304 305 307 308 309 310 311 312 313
279 283 281 283 285 288 288 285 285 289 290 291 291 289 286 285 285 286 288 288 286 287 288 288 289 289 290 292 294 295 296 297 299 300 302 303 304 306 307 307 308 309 310 311
280 283 284 286 287 288 287 288 291 293 292 290 288 287 287 287 287 287 287 287 288 288 288 287 289 290 292 293 294 296 296 297 298 299 300 301 301 303 305 305 306 307 308 309
276 280 282 284 285 288 288 288 289 291 292 290 288 288 288 288 289 289 288 288 288 288 288 289 289 290 291 291 293 295 295 296 297 298 299 299 300 301 302 303 304 305 306 306
273 278 279 283 286 287 286 288 289 291 291 291 291 290 290 290 289 289 289 288 288 288 289 289 289 290 291 292 292 294 295 295 296 297 298 298 299 300 301 302 302 303 303 303
269 274 277 279 281 284 285 287 290 291 291 291 291 290 290 289 289 289 289 289 289 289 289 290 290 291 291 292 292 293 294 295 295 296 297 297 298 299 299 300 300 301 301 301
272 277 278 280 282 284 283 286 288 289 290 290 290 290 290 290 290 289 289 289 289 289 290 290 291 291 292 292 292 293 294 294 295 295 296 296 296 297 297 298 298 298 299 299
273 276 277 280 283 285 286 286 287 287 288 289 290 290 291 291 291 290 290 290 290 290 291 291 291 292 292 292 292 292 293 293 294 294 294 295 295 295 295 295 295 295 295 295
274 276 279 284 287 288 288 288 288 288 289 289 290 291 291 292 291 291 291 292 292 292 292 292 292 292 292 292 292 293 293 293 293 293 294 294 293 293 293 293 292 292 292 291
284 285 286 286 286 286 286 287 288 289 290 291 292 292 293 293 293 293 293 294 294 294 293 294 293 293 294 294 294 294 293 293 293 293 293 293 292 292 291 291 290 289 289 287
288 288 287 286 285 285 286 287 288 289 290 291 292 293 294 294 295 295 295 295 295 295 295 295 295 295 295 295 295 295 294 294 293 293 292 292 291 291 290 289 287 286 284 282
286 285 284 284 285 285 287 288 289 290 291 292 293 294 294 295 295 295 295 296 296 296 296 296 296 296 296 296 295 295 295 294 294 293 292 291 290 289 288 286 284 282 279 277
283 283 284 286 288 288 289 289 290 291 292 293 294 295 295 295 296 296 296 296 296 296 296 296 296 296 296 296 296 295 295 295 294 293 293 292 291 289 286 284 281 278 275 272
283 285 287 289 289 290 291 291 292 293 294 294 295 295 295 295 296 296 296 296 296 296 296 297 297 297 297 297 297 297 297 297 296 295 294 292 291 288 285 281 277 272 270 267
287 287 288 289 290 291 292 293 294 294 295 295 295 295 295 295 295 296 296 296 297 297 298 298 298 298 298 299 299 298 298 298 297 296 294 292 290 287 282 277 270 268 266 264
286 288 289 290 291 292 293 293 294 294 295 295 295 295 295 296 296 296 297 297 298 299 300 300 300 300 300 300 301 301 301 300 299 296 292 290 288 284 279 273 266 261 258 257
287 288 289 290 291 292 293 293 293 293 294 294 295 295 295 296 296 297 298 299 300 301 301 302 302 303 303 303 303 304 304 302 301 298 294 290 285 279 272 264 256 253 251 248
288 289 290 291 292 293 293 294 293 294 294 295 295 295 295 296 297 298 299 300 301 302 302 302 303 304 305 306 305 305 305 303 301 298 294 288 279 270 259 254 245 244 242 240
Height
5848 5848 5847 5848 5848 5847 5846 5846 5846 5846 5845 5846 5845 5846 5846 5846 5845 5845 5845 5844 5843 5843 5843 5842 5841 5841 5840 5839 5837 5835 5833 5831 5828 5825 5822 5818 5814 5810 5805 5800 5795 5790 5785 5779
5844 5844 5843 5843 5843 5842 5841 5841 5840 5841 5841 5841 5841 5841 5841 5841 5840 5840 5840 5840 5839 5839 5839 5838 5837 5836 5835 5834 5832 5830 5828 5825 5822 5819 5816 5812 5808 5803 5799 5794 5789 5783 5778 5772
5839 5839 5838 5838 5838 5837 5837 5836 5836 5836 5837 5836 5836 5836 5836 5836 5836 5836 5836 5836 5836 5835 5834 5833 5832 5831 5830 5828 5826 5824 5822 5819 5816 5812 5809 5805 5801 5796 5791 5786 5781 5776 5770 5764
5833 5834 5833 5836 5834 5833 5832 5832 5831 5831 5831 5831 5831 5831 5831 5832 5832 5832 5832 5832 5831 5830 5829 5828 5827 5825 5824 5822 5820 5818 5815 5812 5809 5805 5802 5798 5793 5789 5784 5778 5773 5767 5762 5756
5827 5827 5828 5829 5828 5828 5827 5826 5826 5826 5826 5826 5826 5826 5826 5826 5826 5827 5827 5827 5826 5825 5823 5822 5820 5819 5817 5815 5813 5810 5808 5805 5801 5798 5794 5790 5785 5780 5775 5770 5765 5759 5753 5747
5821 5821 5822 5824 5823 5823 5823 5821 5822 5821 5821 5821 5821 5821 5821 5821 5821 5821 5821 5820 5819 5818 5816 5815 5813 5812 5810 5807 5805 5803 5800 5797 5793 5789 5785 5781 5776 5771 5766 5761 5756 5750 5744 5738
5815 5815 5816 5817 5817 5818 5818 5818 5816 5815 5815 5815 5814 5815 5815 5815 5814 5814 5813 5813 5812 5811 5809 5808 5806 5804 5802 5800 5797 5794 5791 5788 5785 5780 5776 5772 5767 5762 5757 5752 5746 5741 5735 5729
5808 5809 5812 5811 5811 5812 5811 5811 5810 5809 5808 5808 5807 5807 5807 5808 5806 5806 5806 5805 5804 5803 5802 5800 5798 5796 5794 5792 5789 5786 5783 5779 5775 5771 5766 5762 5758 5753 5748 5742 5737 5731 5725 5719
5803 5804 5804 5804 5804 5804 5803 5803 5803 5803 5802 5802 5801 5800 5800 5800 5799 5798 5798 5797 5796 5795 5794 5792 5790 5787 5785 5783 5780 5777 5773 5770 5766 5761 5757 5752 5748 5743 5738 5732 5727 5721 5715 5709
5795 5795 5796 5797 5797 5796 5795 5795 5795 5795 5795 5794 5794 5794 5793 5793 5792 5791 5790 5789 5788 5786 5785 5783 5781 5778 5776 5773 5770 5767 5764 5760 5755 5751 5747 5742 5737 5733 5727 5722 5716 5711 5705 5699
5788 5788 5789 5790 5790 5789 5789 5788 5788 5788 5788 5787 5787 5787 5786 5785 5784 5783 5782 5781 5779 5777 5776 5774 5771 5769 5766 5763 5759 5756 5753 5749 5745 5740 5736 5731 5726 5721 5716 5711 5705 5700 5694 5688
5781 5782 5782 5782 5782 5782 5781 5781 5781 5781 5781 5780 5780 5779 5778 5777 5776 5775 5773 5771 5769 5767 5765 5763 5761 5758 5755 5752 5748 5745 5741 5737 5733 5729 5724 5720 5715 5710 5704 5699 5694 5688 5682 5677
5774 5774 5774 5773 5773 5774 5774 5774 5774 5774 5774 5773 5772 5771 5770 5769 5767 5765 5764 5762 5760 5757 5755 5752 5750 5747 5744 5740 5737 5733 5729 5725 5721 5716 5712 5707 5702 5697 5693 5688 5682 5676 5671 5665
5767 5767 5766 5766 5765 5765 5766 5766 5766 5766 5765 5765 5764 5762 5761 5759 5758 5756 5753 5751 5749 5747 5744 5741 5738 5735 5732 5728 5724 5721 5716 5712 5707 5703 5699 5694 5689 5684 5679 5674 5670 5665 5659 5653
5760 5760 5759 5759 5758 5758 5758 5757 5757 5757 5756 5755 5754 5753 5751 5749 5747 5745 5743 5740 5738 5735 5732 5729 5726 5723 5719 5715 5711 5707 5703 5698 5694 5689 5684 5680 5675 5670 5665 5660 5656 5651 5646 5641
5752 5751 5751 5750 5750 5750 5750 5749 5748 5747 5746 5745 5744 5742 5740 5738 5736 5734 5732 5729 5726 5723 5720 5716 5713 5710 5706 5701 5697 5693 5688 5683 5679 5674 5670 5665 5660 5655 5651 5646 5642 5637 5633 5629
5744 5744 5743 5742 5742 5742 5741 5740 5739 5738 5736 5735 5733 5731 5730 5727 5725 5722 5719 5716 5713 5710 5706 5703 5699 5695 5691 5687 5683 5678 5673 5668 5664 5659 5654 5649 5645 5640 5636 5632 5628 5624 5620 5616
5736 5736 5735 5735 5734 5733 5732 5731 5729 5728 5726 5724 5722 5720 5718 5715 5712 5709 5706 5703 5700 5696 5692 5688 5684 5680 5675 5671 5667 5662 5657 5652 5647 5643 5638 5633 5629 5624 5620 5617 5613 5610 5607 5604
5728 5727 5727 5726 5725 5724 5722 5721 5719 5717 5714 5712 5710 5707 5705 5702 5699 5696 5692 5689 5685 5681 5677 5673 5668 5664 5659 5654 5649 5645 5640 5635 5630 5626 5621 5617 5612 5608 5604 5601 5598 5596 5593 5591
5720 5719 5718 5717 5716 5714 5712 5710 5708 5706 5703 5700 5697 5694 5691 5688 5684 5681 5677 5674 5670 5665 5661 5657 5652 5647 5642 5637 5632 5628 5623 5618 5613 5609 5604 5600 5596 5592 5589 5586 5583 5581 5579 5578
5711 5710 5709 5707 5705 5703 5701 5699 5696 5693 5690 5687 5684 5681 5677 5674 5670 5666 5662 5659 5654 5649 5645 5640 5635 5630 5625 5620 5615 5610 5605 5600 5596 5591 5587 5583 5579 5576 5573 5571 5569 5567 5566 5566
5700 5699 5697 5696 5693 5691 5689 5686 5683 5680 5677 5674 5670 5667 5663 5659 5655 5651 5647 5643 5638 5633 5629 5624 5619 5613 5608 5603 5598 5593 5588 5583 5578 5574 5570 5566 5563 5560 5558 5556 5555 5554 5554 5554
5689 5687 5685 5683 5681 5678 5676 5673 5670 5666 5663 5660 5656 5652 5649 5645 5640 5636 5632 5627 5622 5618 5613 5608 5603 5597 5592 5586 5581 5576 5571 5567 5562 5558 5554 5551 5548 5546 5544 5543 5542 5542 5543 5544
5677 5674 5672 5670 5667 5664 5662 5658 5655 5652 5649 5645 5641 5637 5633 5629 5625 5621 5616 5612 5607 5602 5598 5593 5587 5582 5577 5572 5567 5562 5557 5553 5548 5545 5541 5539 5536 5534 5532 5532 5532 5533 5534 5536
5665 5662 5659 5656 5653 5650 5648 5644 5641 5638 5634 5630 5626 5622 5618 5614 5610 5606 5602 5597 5593 5588 5583 5578 5574 5569 5564 5559 5554 5549 5545 5540 5536 5532 5530 5527 5525 5524 5523 5523 5523 5525 5527 5528
5652 5649 5646 5643 5640 5637 5634 5630 5627 5623 5619 5616 5612 5608 5604 5600 5596 5592 5588 5584 5580 5575 5571 5566 5561 5557 5552 5547 5543 5538 5533 5529 5525 5522 5519 5517 5516 5515 5515 5515 5517 5519 5520 5522
5638 5635 5632 5629 5626 5623 5619 5615 5612 5609 5605 5602 5598 5595 5591 5587 5583 5580 5576 5572 5568 5563 5559 5555 5551 5546 5542 5537 5532 5528 5523 5519 5516 5513 5511 5509 5508 5508 5509 5510 5512 5514 5516 5517